Location: Sperry Observatory
(40.6664°N, 74.3236°W)
Time: 18:34:54
(UTC-04:00)

FO-29 - Visible Passes

Search period start: 22 July 2018 00:00
Search period end: 01 August 2018 00:00
Orbit: 800 x 1322 km, 98.5° (Epoch: 21 July)

Date Brightness Start Highest point End Pass type
(mag) Time Alt. Az. Time Alt. Az. Time Alt. Az.
22 Jul 12.0 21:00:01 10° N 21:05:45 31° WNW 21:11:59 10° WSW visible
23 Jul 12.9 21:52:00 10° NNW 21:55:08 14° WNW 21:58:24 10° W visible
24 Jul 11.9 20:54:53 10° N 21:00:51 33° WNW 21:07:19 10° SW visible
25 Jul 12.9 21:46:37 10° NNW 21:50:15 15° WNW 21:54:04 10° W visible
26 Jul 11.8 20:49:46 10° N 20:55:57 35° WNW 21:02:39 10° SW visible
27 Jul 12.8 21:41:19 10° NNW 21:45:23 16° WNW 21:49:38 10° W visible
28 Jul 11.7 20:44:40 10° N 20:51:04 38° WNW 20:57:57 10° SW visible
29 Jul 12.7 05:14:56 10° E 05:17:52 15° ENE 05:20:55 10° NNE visible
29 Jul 12.8 21:36:04 10° NNW 21:40:31 18° WNW 21:45:10 10° W visible
30 Jul 11.6 20:39:35 10° N 20:46:11 41° WNW 20:53:15 10° SW visible
31 Jul 12.8 05:10:08 10° E 05:12:54 14° NE 05:15:48 10° NNE visible
31 Jul 12.8 21:30:52 10° NNW 21:35:39 19° WNW 21:40:39 10° W visible
